Historique des stations

Station météo de Yvoy-le-Marron

Altitude de la station : 130 m







Données météorologiques pour le 20/06/2021
Date
Heure
Températures Humidité Point de rosée Vitesse
du vent
Direction Rafales Windchill Pression Pluviométrie
Cumul
Date
Heure
Températures Humidité Point de rosée Vitesse
du vent
Direction Rafales Windchill Pression Pluviométrie
Cumul
20/06/2021 09:1619.3 °C83 %16.7 °C-N5 km/h19.4 1008 hPa0.4 mm
20/06/2021 09:0218.8 °C82 %15.6 °C-NE3 km/h18.9 1008 hPa0.4 mm
20/06/2021 08:4717.7 °C91 %16.1 °C-S3 km/h17.8 1009 hPa0.4 mm
20/06/2021 08:3216.9 °C94 %16.1 °C-S2 km/h16.7 1009 hPa0.4 mm
20/06/2021 08:1716.6 °C97 %16.1 °C2 km/hS2 km/h16.7 1009 hPa0.4 mm
20/06/2021 08:0216.0 °C97 %15.6 °C-S2 km/h16.1 1009 hPa0.4 mm
20/06/2021 07:4715.9 °C97 %15.6 °C-S2 km/h16.1 1009 hPa0.4 mm
20/06/2021 07:3115.6 °C97 %15.0 °C---15.6 1009 hPa0.4 mm
20/06/2021 07:1615.4 °C97 %15.0 °C---15.6 1009 hPa0.4 mm
20/06/2021 07:0115.1 °C98 %15.0 °C---15.0 1009 hPa0.4 mm
20/06/2021 06:4614.7 °C97 %14.4 °C-S2 km/h14.4 1009 hPa0.4 mm
20/06/2021 06:3114.4 °C97 %13.9 °C-S2 km/h14.4 1009 hPa0.4 mm
20/06/2021 06:1614.4 °C96 %13.9 °C---14.4 1009 hPa0.4 mm
20/06/2021 06:0114.7 °C96 %13.9 °C-S2 km/h14.4 1009 hPa0.4 mm
20/06/2021 05:4614.9 °C97 %14.4 °C-S3 km/h15.0 1010 hPa0.4 mm
20/06/2021 05:3114.9 °C96 %14.4 °C-S2 km/h15.0 1009 hPa0.4 mm
20/06/2021 05:1615.1 °C96 %14.4 °C-ONO2 km/h15.0 1009 hPa0.4 mm
20/06/2021 05:0115.3 °C95 %14.4 °C---15.6 1009 hPa0.4 mm
20/06/2021 04:4615.7 °C96 %15.0 °C-ONO2 km/h15.6 1010 hPa0.2 mm
20/06/2021 04:3116.0 °C96 %15.6 °C-ONO3 km/h16.1 1010 hPa0.2 mm
20/06/2021 04:1615.9 °C96 %15.6 °C-SSO5 km/h16.1 1010 hPa0.2 mm
20/06/2021 04:0116.2 °C95 %15.6 °C-SSE3 km/h16.1 1010 hPa0.2 mm
20/06/2021 03:4616.6 °C96 %16.1 °C-SSE3 km/h16.7 1010 hPa0.2 mm
20/06/2021 03:3116.9 °C95 %16.1 °C-S3 km/h16.7 1010 hPa0.2 mm
20/06/2021 03:1617.2 °C95 %16.7 °C-S5 km/h17.2 1010 hPa0.2 mm
20/06/2021 03:0117.4 °C96 %16.7 °C-OSO10 km/h17.2 1010 hPa0.2 mm
20/06/2021 02:4617.7 °C96 %17.2 °C-OSO3 km/h17.8 1010 hPa0.2 mm
20/06/2021 02:3117.8 °C96 %17.2 °C5 km/hO6 km/h17.8 1010 hPa0.2 mm
20/06/2021 02:1617.8 °C97 %17.2 °C3 km/hSSO10 km/h17.8 1010 hPa0.2 mm
20/06/2021 02:0117.7 °C97 %17.2 °C8 km/hSSO10 km/h17.8 1010 hPa0.2 mm
20/06/2021 01:4617.8 °C96 %17.2 °C2 km/hS5 km/h17.8 1010 hPa0.2 mm
20/06/2021 01:3118.0 °C96 %17.2 °C2 km/hS6 km/h17.8 1010 hPa0.2 mm
20/06/2021 01:1618.3 °C96 %17.8 °C2 km/hS8 km/h18.3 1010 hPa0.2 mm
20/06/2021 01:0118.6 °C96 %17.8 °C3 km/hSO11 km/h18.3 1010 hPa-
20/06/2021 00:4618.7 °C96 %18.3 °C-S8 km/h18.9 1010 hPa-
20/06/2021 00:3218.8 °C97 %18.3 °C3 km/hSSO8 km/h18.9 1010 hPa-
20/06/2021 00:1718.7 °C96 %18.3 °C-SSO8 km/h18.9 1010 hPa-
20/06/2021 00:0218.7 °C96 %18.3 °C2 km/hSSE5 km/h18.9 1010 hPa-


Minima :

Température : 14.4 °C
Humidité : 82 %
Point de rosée : 13.9 °C
Vent moyen : 2 km/h
Windchill : 14.4
Pression atm. : 1008 hPa
Maxima :

Température : 19.3 °C
Humidité : 98 %
Point de rosée : 18.3 °C
Vent moyen : 8 km/h
Windchill : 19.4
Pression atm. : 1010 hPa
Rafales max : 11 km/h
Cumul de pluie sur 24H : 0.4 mm

Yvoy-le-Marron est une commune du département Loir-et-Cher (41).
La station météorologique du réseau de l'association la plus proche de Yvoy-le-Marron est celle de Olivet



Icône Facebook Association Météo Centre Icône Twitter Association Météo Centre Icône Chaîne Youtube Association Météo Centre Icône contact Association Météo Centre Icône Insta Association Météo Centre